Weather History for North Adams, MA

Change the Weather History Date:

Saturday, May 4, 2013

  Actual Average Record
Temperature  
Mean Temperature 54 °F -  
Max Temperature 73 °F 63 °F 86 °F (2001)
Min Temperature 37 °F 40 °F 27 °F (2003)
Degree Days  
Heating Degree Days 10    
Growing Degree Days 4 (Base 50)    
Moisture  
Dew Point 32 °F    
Average Humidity 44    
Maximum Humidity 86    
Minimum Humidity 17    
Precipitation  
Precipitation 0.00 in - - ()
Sea Level Pressure  
Sea Level Pressure 30.29 in    
Wind  
Wind Speed 3 mph (East)    
Max Wind Speed 13 mph    
Max Gust Speed 21 mph    
Visibility 10 miles    
Events      
Averages and records for this station are not official NWS values.
T = Trace of Precipitation, MM = Missing Value Source: NWS Daily Summary

Daily Weather History Graph

Daily Weather History Graph

Search for Another Location

Airport:

Trip Planner

Search our weather history database for the weather conditions in past years. The results will help you decide how hot, cold, wet, or windy it might be!

Date:

Astronomy

May. 04, 2013 Rise Set
Actual Time 5:42 AM EDT 7:56 PM EDT
Civil Twilight 5:11 AM EDT 8:27 PM EDT
Nautical Twilight 4:33 AM EDT 9:06 PM EDT
Astronomical Twilight 3:50 AM EDT 9:49 PM EDT
Moon 2:47 AM EDT (5/4) 2:44 PM EDT (5/4)
Length of Visible Light 15h 16m
Length of Day
14h 13m
Waning Crescent, 27% of the Moon is Illuminated
May 4
Waning Crescent
May 9
New
May 18
First Quarter
May 25
Full
May 31
Last Quarter

Hourly Weather History & Observations

Time (EDT) Temp. Dew Point Humidity Pressure Visibility Wind Dir Wind Speed Gust Speed Precip Events Conditions
12:52 AM 50.0 °F 37.9 °F 63% 30.38 in 10.0 mi Calm Calm - N/A   Clear
1:52 AM 45.0 °F 37.0 °F 74% 30.37 in 10.0 mi Calm Calm - N/A   Clear
2:52 AM 43.0 °F 37.0 °F 80% 30.35 in 10.0 mi Calm Calm - N/A   Clear
3:52 AM 41.0 °F 36.0 °F 82% 30.35 in 10.0 mi Calm Calm - N/A   Clear
4:52 AM 39.0 °F 35.1 °F 86% 30.35 in 10.0 mi Calm Calm - N/A   Clear
5:52 AM 37.9 °F 33.1 °F 83% 30.36 in 10.0 mi Calm Calm - N/A   Clear
6:52 AM 42.1 °F 37.0 °F 82% 30.36 in 10.0 mi Calm Calm - N/A   Clear
7:52 AM 46.9 °F 37.9 °F 71% 30.35 in 10.0 mi Calm Calm - N/A   Clear
8:52 AM 55.0 °F 39.0 °F 55% 30.34 in 10.0 mi NW 3.5 mph - N/A   Clear
9:52 AM 60.1 °F 39.0 °F 46% 30.32 in 10.0 mi Calm Calm - N/A   Clear
10:52 AM 64.9 °F 37.9 °F 37% 30.30 in 10.0 mi West 3.5 mph - N/A   Clear
11:52 AM 68.0 °F 33.1 °F 27% 30.28 in 10.0 mi East 12.7 mph 20.7 mph N/A   Clear
12:52 PM 71.1 °F 32.0 °F 24% 30.26 in 10.0 mi ESE 8.1 mph - N/A   Clear
1:52 PM 72.0 °F 36.0 °F 27% 30.25 in 10.0 mi SE 10.4 mph 16.1 mph N/A   Clear
2:52 PM 72.0 °F 32.0 °F 23% 30.23 in 10.0 mi East 9.2 mph - N/A   Clear
3:52 PM 72.0 °F 30.9 °F 22% 30.21 in 10.0 mi ESE 6.9 mph - N/A   Clear
4:52 PM 72.0 °F 27.0 °F 19% 30.20 in 10.0 mi Variable 6.9 mph 17.3 mph N/A   Clear
5:52 PM 71.1 °F 24.1 °F 17% 30.21 in 10.0 mi ESE 9.2 mph - N/A   Clear
6:52 PM 69.1 °F 28.9 °F 22% 30.21 in 10.0 mi SE 9.2 mph - N/A   Clear
7:52 PM 64.9 °F 27.0 °F 24% 30.22 in 10.0 mi ESE 8.1 mph - N/A   Clear
8:52 PM 62.1 °F 27.0 °F 26% 30.24 in 10.0 mi ENE 6.9 mph - N/A   Clear
9:52 PM 57.9 °F 19.9 °F 23% 30.27 in 10.0 mi East 8.1 mph - N/A   Clear
10:52 PM 57.0 °F 19.0 °F 23% 30.27 in 10.0 mi ENE 8.1 mph - N/A   Clear
11:52 PM 54.0 °F 21.0 °F 28% 30.27 in 10.0 mi East 5.8 mph - N/A   Clear